Theta_e
326 327 326 327 327 328 328 328 328 327 327 327 327 328 328 329 330 329 328 328 327 327 328 329 329 328 329 329 330 331 330 329 329 331 328 327 327 327 327 327 328 329
325 326 326 326 326 327 328 327 327 327 327 326 327 327 327 328 328 328 328 328 328 327 328 328 328 330 330 329 329 329 330 330 330 332 329 327 328 328 327 327 327 329
324 325 325 325 325 326 328 328 327 327 327 327 327 327 327 328 327 328 328 328 328 327 327 327 328 328 327 327 328 328 329 330 329 329 330 329 328 326 327 328 327 327
324 324 325 325 325 326 327 327 326 327 327 326 327 328 328 328 328 327 327 328 326 327 327 327 326 326 327 327 327 328 329 328 329 329 327 327 327 327 327 328 327 327
323 324 324 324 325 326 326 326 326 326 326 327 327 327 327 327 327 326 326 326 326 326 326 325 326 326 327 327 329 328 328 326 327 328 326 326 327 327 327 327 327 326
322 323 323 324 326 326 326 326 326 326 326 326 326 327 327 327 326 326 327 327 327 326 325 326 326 326 326 326 326 327 326 325 326 327 326 325 325 327 327 327 327 327
321 322 324 326 326 327 326 326 326 326 327 326 326 326 327 326 326 326 327 328 327 326 327 327 324 323 325 327 326 325 324 325 326 326 325 324 326 325 327 327 327 327
322 323 323 324 325 325 325 325 325 326 327 326 325 326 327 327 327 327 327 328 327 326 324 325 326 327 327 325 325 324 325 326 324 323 325 325 324 324 326 328 327 327
321 320 320 320 321 321 322 324 324 326 327 325 325 325 327 327 328 327 327 327 326 324 323 324 324 325 324 325 324 324 324 323 325 324 324 322 323 323 327 327 327 326
318 318 318 317 318 319 319 320 321 323 325 324 325 326 326 327 327 327 326 325 326 327 326 326 325 325 326 326 326 326 326 326 325 325 325 324 325 325 326 325 324 324
315 316 316 316 316 316 316 317 317 318 320 321 323 325 326 326 326 326 325 324 322 323 321 319 319 321 325 325 326 325 325 326 325 325 324 325 323 325 326 325 324 324
315 315 315 315 315 314 314 315 315 315 316 317 319 321 323 324 324 324 323 318 316 315 315 314 313 314 315 319 325 327 326 325 325 325 325 325 324 326 326 326 325 325
314 314 314 314 314 313 313 313 313 313 313 313 315 316 318 318 317 316 317 316 315 314 313 312 310 310 309 312 317 323 324 325 326 325 325 325 325 324 324 326 326 325
313 314 313 313 313 312 312 312 312 312 312 312 312 312 314 316 314 313 313 312 312 311 310 309 307 306 305 307 310 315 318 322 324 324 325 324 325 324 326 325 326 325
313 313 313 313 312 311 310 310 310 310 311 311 310 309 310 311 312 312 310 309 309 308 308 306 305 304 303 302 305 313 314 319 324 324 324 325 325 325 325 325 325 322
313 312 312 312 311 309 309 309 308 309 309 309 309 308 308 308 308 309 308 307 306 305 305 304 303 302 302 301 302 310 319 323 323 322 323 323 323 323 323 322 320 318
312 311 311 310 310 309 308 307 307 307 307 307 307 306 306 306 306 306 306 307 305 303 302 302 301 299 297 296 299 307 319 320 319 319 320 321 323 322 321 321 321 321
311 310 310 309 309 308 307 307 306 305 305 305 305 304 304 304 303 303 304 305 305 304 302 300 299 297 295 296 298 301 309 316 314 313 313 313 315 319 322 322 321 320
310 310 309 308 308 307 307 306 305 304 303 303 303 304 303 302 301 301 301 303 303 302 301 299 297 295 295 296 298 299 302 310 312 311 309 309 310 312 315 319 318 316
309 308 307 307 307 307 306 306 305 304 303 303 303 302 301 301 300 299 299 300 300 300 300 299 297 295 294 296 298 300 301 306 311 309 308 307 307 307 308 310 313 312
307 307 306 306 306 306 305 305 304 304 303 303 302 301 300 299 299 298 298 298 299 299 298 298 296 293 294 295 297 300 301 304 310 309 307 306 305 305 305 305 306 309
305 304 304 304 305 305 304 304 304 303 302 301 301 300 300 300 299 299 298 298 298 298 298 297 296 293 293 294 296 298 302 309 308 307 305 305 304 304 303 303 304 304
303 301 301 301 301 301 302 302 303 303 302 301 299 298 297 297 297 297 298 298 298 298 298 297 297 294 292 293 295 297 302 306 306 305 304 303 302 302 302 301 301 302
300 299 299 298 298 298 299 299 301 301 301 301 298 297 296 296 296 296 297 297 297 297 297 297 297 295 293 293 294 296 302 305 304 303 302 301 301 301 301 300 301 301
300 299 299 298 298 297 298 297 298 298 299 299 298 297 296 296 296 295 295 296 297 297 299 296 297 297 294 293 293 294 301 305 303 301 300 299 299 299 299 299 299 299
299 299 299 299 298 297 297 297 297 296 297 297 296 296 296 296 296 295 295 296 296 296 296 296 295 296 295 293 293 294 296 302 302 300 299 298 298 298 298 298 299 299
Wind_Speed
5 5 5 5 5 4 4 3 3 4 4 4 5 6 7 7 6 6 6 6 4 6 6 5 4 5 5 6 8 7 7 8 8 7 9 11 7 8 8 7 8 9
6 5 4 4 5 5 5 3 3 3 4 4 4 5 6 6 7 6 7 6 5 4 5 5 5 6 6 6 5 5 7 7 8 6 8 11 11 10 9 9 6 5
5 6 6 6 5 6 6 4 4 4 4 5 4 5 6 5 6 6 6 6 5 6 7 5 6 5 5 4 4 5 7 7 8 7 8 11 9 9 9 8 7 7
6 6 5 5 5 6 5 5 5 5 5 6 6 7 6 6 7 7 6 6 6 6 6 6 4 4 5 6 6 6 6 5 6 6 8 4 4 8 9 7 7 8
7 7 6 5 5 5 4 5 6 6 6 6 7 7 7 8 8 7 7 6 5 6 5 5 5 4 3 3 3 2 3 1 2 3 3 5 7 7 5 7 7 7
5 5 5 6 6 5 5 6 5 6 6 7 8 7 7 7 7 8 8 7 6 6 6 6 5 3 1 3 3 1 1 2 0 1 2 5 8 3 4 5 6 7
7 7 8 8 8 7 7 7 7 6 7 6 6 8 7 8 8 8 8 7 7 6 4 4 2 2 1 1 4 3 3 1 2 3 2 3 5 2 1 4 5 6
8 9 10 9 9 9 9 9 8 7 8 8 8 8 8 8 8 7 7 7 6 5 4 2 2 4 3 3 4 7 4 2 1 0 0 2 3 5 4 3 3 4
9 9 10 10 10 10 11 10 9 8 9 9 9 9 8 7 8 8 8 6 6 4 4 3 4 4 3 4 3 4 4 1 3 0 1 1 2 3 3 3 3 4
9 10 11 10 10 10 12 12 12 11 9 10 9 9 9 9 9 9 9 9 9 7 8 8 5 3 4 5 6 5 4 3 3 3 3 2 1 1 1 2 1 3
9 10 11 11 11 11 13 12 12 11 11 11 11 10 9 8 8 9 10 12 12 12 12 11 10 9 8 6 4 4 4 3 1 2 3 4 4 4 2 3 4 2
9 10 11 11 11 12 12 11 11 11 11 11 12 12 12 11 11 9 11 12 11 11 10 10 10 9 9 8 6 4 3 2 2 4 1 3 3 3 3 1 1 1
10 10 10 10 10 10 10 10 10 10 11 11 11 12 12 12 12 13 11 11 10 10 9 9 9 7 9 8 8 6 5 5 4 2 1 1 2 1 3 2 3 2
9 10 10 10 9 10 10 10 10 10 10 10 10 12 12 12 12 12 11 11 11 10 10 9 9 8 8 7 6 6 5 4 2 1 2 3 4 2 2 2 1 1
8 9 9 9 10 11 11 11 11 10 10 10 10 11 10 11 12 12 12 13 12 11 11 11 8 9 8 9 7 7 4 3 5 5 5 6 5 6 5 3 4 3
9 9 9 10 11 11 11 11 11 10 10 10 11 11 11 10 11 11 11 11 11 12 12 11 9 7 14 17 8 3 7 7 7 7 7 5 6 6 7 6 3 2
9 9 9 11 10 11 11 12 11 10 10 11 11 12 12 12 11 13 11 11 11 11 12 11 10 11 20 17 17 13 9 8 8 9 9 9 7 7 6 5 5 5
9 10 10 11 11 12 11 11 11 11 11 11 11 13 12 12 13 12 11 11 10 12 13 12 11 19 20 20 17 16 13 10 9 9 9 9 9 9 8 7 7 8
9 10 11 11 11 10 9 9 10 12 12 12 12 10 10 13 12 13 13 12 13 13 13 13 11 20 20 20 17 17 15 13 10 10 11 11 11 11 10 10 9 9
10 11 12 11 10 9 9 10 11 11 10 9 9 10 12 12 12 13 12 13 13 12 12 14 15 20 21 20 18 18 16 13 11 12 12 13 10 11 10 11 10 9
11 11 11 10 10 10 10 11 11 10 11 9 9 10 11 11 11 12 12 12 12 11 11 13 14 22 20 20 19 18 17 13 11 11 11 12 12 12 11 9 10 9
11 11 11 10 10 9 10 11 10 10 10 9 9 9 9 9 10 11 13 13 12 12 13 14 15 24 22 21 19 16 15 11 11 12 12 12 13 13 12 10 11 10
10 10 10 10 10 11 11 10 10 10 9 8 9 9 10 11 10 10 10 12 14 14 14 14 16 22 24 22 20 17 13 11 11 11 12 13 13 12 10 12 13 10
8 9 10 10 10 11 11 10 9 9 9 8 10 10 10 9 7 9 10 11 13 15 13 13 14 19 23 21 20 18 13 11 10 10 12 12 11 12 10 10 16 26
7 7 8 8 8 8 7 7 7 7 6 7 8 8 9 7 8 9 9 10 11 11 16 15 13 17 22 21 21 19 13 10 10 10 12 11 10 10 10 10 11 15
8 9 8 7 6 5 4 4 3 4 5 5 6 6 7 8 8 9 11 10 10 11 12 12 13 13 18 21 21 20 17 11 9 11 10 10 10 10 11 11 12 11
Wind_Direction
17 11 3 356 343 341 344 350 356 352 334 331 331 317 307 295 295 283 270 269 250 253 256 246 227 242 229 236 250 249 235 230 230 201 190 195 205 208 206 201 190 193
5 356 353 353 347 344 336 352 356 348 332 328 316 306 302 301 297 290 282 276 260 258 261 232 215 228 240 228 225 237 231 222 221 204 195 194 204 201 201 201 200 201
355 351 352 355 348 339 338 344 357 340 329 314 305 305 303 300 299 296 289 282 289 283 270 231 203 196 225 242 232 233 236 231 224 213 208 201 191 188 201 197 198 206
355 353 348 346 342 338 342 349 351 347 336 333 333 321 313 307 303 299 295 296 292 282 269 259 241 227 243 262 258 246 233 239 249 222 215 177 161 175 182 186 187 200
357 351 344 340 337 338 352 5 354 352 347 337 325 324 319 318 317 314 312 307 288 277 268 249 245 239 226 222 222 227 208 194 236 279 229 189 193 182 166 171 183 203
351 343 344 346 343 349 4 4 356 353 348 343 334 323 324 324 326 326 324 320 306 287 280 267 247 250 278 275 228 170 261 277 324 83 4 210 132 141 178 178 171 192
0 357 2 358 358 7 11 2 1 357 355 338 328 338 333 336 335 333 330 326 309 302 306 323 255 225 251 27 85 101 105 36 52 38 80 24 84 80 186 190 196 190
23 22 18 15 19 18 18 17 9 6 2 351 350 341 339 338 338 335 334 326 316 326 333 343 20 59 60 60 62 73 58 346 6 54 186 167 124 180 196 183 177 214
28 24 22 19 19 15 14 13 9 9 12 2 355 348 344 343 344 348 347 335 343 346 326 355 23 25 31 57 64 77 73 172 279 340 278 50 251 181 155 152 181 222
27 24 24 22 21 18 17 11 12 7 5 6 356 356 359 359 3 4 10 12 13 16 11 3 6 24 42 50 43 64 44 54 48 37 31 120 276 314 98 147 83 37
26 24 25 24 26 23 19 14 13 8 3 2 358 0 359 1 9 12 21 22 20 18 18 15 12 17 26 33 54 57 39 2 85 64 39 23 45 338 1 48 65 107
29 30 28 27 30 27 21 17 15 13 10 9 6 8 8 13 13 19 29 32 27 20 12 11 13 18 21 19 25 65 76 90 45 69 138 61 47 332 50 105 192 195
31 33 31 31 31 28 23 21 20 18 15 12 11 13 18 24 23 28 25 26 25 23 15 2 2 4 19 9 4 16 22 15 28 51 148 129 143 163 173 176 163 151
38 37 36 33 33 30 28 25 22 21 18 17 16 17 16 23 24 26 24 24 20 22 16 10 360 8 8 351 350 360 6 2 357 322 257 173 170 252 21 16 331 112
43 44 37 36 34 34 31 27 25 22 22 24 24 24 20 19 22 20 22 21 17 20 16 16 9 13 5 341 329 359 0 355 27 35 51 74 76 81 102 93 35 17
45 45 41 38 38 37 34 31 27 22 23 26 26 27 24 19 19 22 26 21 14 14 17 16 13 7 354 357 340 333 31 44 47 40 45 62 68 70 73 73 75 76
46 44 39 42 41 39 37 35 31 29 28 31 33 31 26 21 19 21 19 20 22 19 18 14 14 4 359 4 5 27 49 45 44 42 40 45 50 54 54 40 20 17
50 46 44 46 44 42 42 40 38 36 34 33 36 36 33 31 29 21 16 16 18 24 26 15 10 6 6 8 12 26 45 52 47 47 45 42 37 39 37 41 35 28
49 46 47 48 47 46 44 45 43 42 37 34 36 34 35 36 30 27 24 21 24 25 22 15 9 6 9 11 16 23 34 56 49 50 52 42 35 31 32 41 39 23
47 47 49 47 46 45 44 44 43 44 40 37 38 37 38 36 30 30 28 27 25 25 23 22 21 4 11 15 21 27 30 48 54 52 56 52 41 32 24 34 35 29
46 48 49 48 47 47 47 47 47 45 41 36 36 38 39 37 30 30 29 28 25 25 30 30 19 10 15 20 23 32 32 43 50 50 54 52 46 43 38 29 21 18
48 46 44 41 40 40 44 46 46 47 45 37 41 41 42 42 38 37 34 30 27 27 33 30 21 17 19 22 23 29 39 47 45 44 45 46 43 35 28 26 27 20
54 53 51 46 43 43 41 39 39 40 46 41 47 45 43 40 38 37 34 35 33 31 31 31 27 17 19 20 19 23 44 45 44 46 45 46 41 35 29 30 29 18
59 60 60 55 52 51 50 48 48 46 46 42 51 49 47 42 40 41 39 37 38 37 30 34 31 21 22 22 22 20 39 51 51 51 47 46 44 38 32 34 37 35
54 56 60 60 60 59 57 59 54 55 53 53 59 59 57 51 45 47 47 42 39 40 36 38 34 26 23 26 29 25 33 47 49 55 53 44 43 39 36 36 32 33
57 54 49 48 47 46 44 51 49 51 49 56 57 59 61 53 48 46 49 44 37 37 38 35 34 32 26 29 33 34 35 51 48 54 51 48 46 42 38 32 32 29